Time,TemperatureF,DewpointF,PressureIn,WindDirection,WindDirectionDegrees,WindSpeedMPH,WindSpeedGustMPH,Humidity,HourlyPrecipIn,Conditions,Clouds,dailyrainin,SoftwareType,DateUTC
2013-07-31 00:13:00,69.8,67.0,30.14,South,184,0.0,0.0,90,0.00,,,0.00,weatherlink.com 1.10,2013-07-31 04:13:00,
2013-07-31 00:28:00,69.7,67.0,30.14,South,184,0.0,0.0,91,0.00,,,0.00,weatherlink.com 1.10,2013-07-31 04:28:00,
2013-07-31 00:43:00,69.6,67.0,30.14,South,184,0.0,0.0,91,0.00,,,0.00,weatherlink.com 1.10,2013-07-31 04:43:00,
2013-07-31 00:58:00,69.5,67.0,30.14,South,184,0.0,0.0,91,0.00,,,0.00,weatherlink.com 1.10,2013-07-31 04:58:00,
2013-07-31 01:13:00,69.4,67.0,30.14,South,184,0.0,0.0,91,0.00,,,0.00,weatherlink.com 1.10,2013-07-31 05:13:00,
2013-07-31 01:28:00,69.4,67.0,30.13,South,184,0.0,0.0,91,0.00,,,0.00,weatherlink.com 1.10,2013-07-31 05:28:00,
2013-07-31 01:43:00,69.4,67.0,30.13,South,184,0.0,0.0,91,0.00,,,0.00,weatherlink.com 1.10,2013-07-31 05:43:00,
2013-07-31 01:58:00,69.3,67.0,30.13,South,184,0.0,0.0,92,0.00,,,0.00,weatherlink.com 1.10,2013-07-31 05:58:00,
2013-07-31 02:13:00,69.2,67.0,30.13,South,184,0.0,0.0,92,0.00,,,0.00,weatherlink.com 1.10,2013-07-31 06:13:00,
2013-07-31 02:28:00,69.1,67.0,30.13,South,184,0.0,0.0,92,0.00,,,0.00,weatherlink.com 1.10,2013-07-31 06:28:00,
2013-07-31 02:43:00,69.0,67.0,30.12,South,184,0.0,0.0,92,0.00,,,0.00,weatherlink.com 1.10,2013-07-31 06:43:00,
2013-07-31 02:58:00,69.0,67.0,30.12,South,184,0.0,0.0,92,0.00,,,0.00,weatherlink.com 1.10,2013-07-31 06:58:00,
2013-07-31 03:13:00,69.0,66.0,30.12,South,184,0.0,0.0,91,0.00,,,0.00,weatherlink.com 1.10,2013-07-31 07:13:00,
2013-07-31 03:28:00,69.0,67.0,30.12,South,184,0.0,0.0,92,0.00,,,0.00,weatherlink.com 1.10,2013-07-31 07:28:00,
2013-07-31 03:43:00,68.8,66.0,30.12,South,184,0.0,0.0,91,0.00,,,0.00,weatherlink.com 1.10,2013-07-31 07:43:00,
2013-07-31 03:58:00,68.8,66.0,30.12,South,184,0.0,0.0,91,0.00,,,0.00,weatherlink.com 1.10,2013-07-31 07:58:00,
2013-07-31 04:14:00,68.8,66.0,30.12,South,184,0.0,0.0,91,0.00,,,0.00,weatherlink.com 1.10,2013-07-31 08:14:00,
2013-07-31 04:29:00,68.8,66.0,30.11,South,184,0.0,0.0,92,0.00,,,0.00,weatherlink.com 1.10,2013-07-31 08:29:00,
2013-07-31 04:44:00,68.8,66.0,30.12,South,184,0.0,0.0,92,0.00,,,0.00,weatherlink.com 1.10,2013-07-31 08:44:00,
2013-07-31 04:59:00,68.8,66.0,30.12,South,184,0.0,0.0,92,0.00,,,0.00,weatherlink.com 1.10,2013-07-31 08:59:00,
2013-07-31 05:14:00,68.7,66.0,30.12,South,184,0.0,0.0,92,0.00,,,0.00,weatherlink.com 1.10,2013-07-31 09:14:00,
2013-07-31 05:29:00,68.6,66.0,30.12,South,184,0.0,0.0,92,0.00,,,0.00,weatherlink.com 1.10,2013-07-31 09:29:00,
2013-07-31 05:44:00,68.5,67.0,30.12,South,184,0.0,0.0,93,0.00,,,0.00,weatherlink.com 1.10,2013-07-31 09:44:00,
2013-07-31 05:59:00,68.4,66.0,30.13,South,184,0.0,0.0,93,0.00,,,0.00,weatherlink.com 1.10,2013-07-31 09:59:00,
2013-07-31 06:14:00,68.3,66.0,30.13,South,184,0.0,0.0,93,0.00,,,0.00,weatherlink.com 1.10,2013-07-31 10:14:00,
2013-07-31 06:29:00,68.3,67.0,30.13,South,184,0.0,0.0,94,0.00,,,0.00,weatherlink.com 1.10,2013-07-31 10:29:00,
2013-07-31 06:44:00,68.2,67.0,30.13,South,184,0.0,0.0,94,0.00,,,0.00,weatherlink.com 1.10,2013-07-31 10:44:00,
2013-07-31 06:59:00,68.1,66.0,30.14,South,184,0.0,0.0,94,0.00,,,0.00,weatherlink.com 1.10,2013-07-31 10:59:00,
2013-07-31 07:14:00,68.1,66.0,30.14,South,184,0.0,0.0,94,0.00,,,0.00,weatherlink.com 1.10,2013-07-31 11:14:00,
2013-07-31 07:29:00,68.1,66.0,30.14,South,184,0.0,0.0,94,0.00,,,0.00,weatherlink.com 1.10,2013-07-31 11:29:00,
2013-07-31 07:44:00,68.3,67.0,30.13,South,184,0.0,0.0,94,0.00,,,0.00,weatherlink.com 1.10,2013-07-31 11:44:00,
2013-07-31 07:59:00,68.9,67.0,30.13,South,184,0.0,0.0,92,0.00,,,0.00,weatherlink.com 1.10,2013-07-31 11:59:00,
2013-07-31 08:14:00,69.6,67.0,30.12,South,184,0.0,0.0,91,0.00,,,0.00,weatherlink.com 1.10,2013-07-31 12:14:00,
2013-07-31 08:29:00,69.8,67.0,30.13,South,184,0.0,0.0,90,0.00,,,0.00,weatherlink.com 1.10,2013-07-31 12:29:00,
2013-07-31 08:44:00,70.1,67.0,30.13,South,184,0.0,0.0,89,0.00,,,0.00,weatherlink.com 1.10,2013-07-31 12:44:00,
2013-07-31 08:59:00,70.2,67.0,30.12,South,184,0.0,0.0,89,0.00,,,0.00,weatherlink.com 1.10,2013-07-31 12:59:00,
2013-07-31 09:14:00,70.2,67.0,30.13,WNW,293,0.0,1.0,90,0.00,,,0.00,weatherlink.com 1.10,2013-07-31 13:14:00,
2013-07-31 09:29:00,70.4,67.0,30.12,WNW,293,0.0,0.0,89,0.00,,,0.00,weatherlink.com 1.10,2013-07-31 13:29:00,
2013-07-31 09:44:00,71.0,67.0,30.12,WNW,293,0.0,0.0,86,0.00,,,0.00,weatherlink.com 1.10,2013-07-31 13:44:00,
2013-07-31 09:59:00,71.9,67.0,30.13,SW,227,1.0,2.0,85,0.00,,,0.00,weatherlink.com 1.10,2013-07-31 13:59:00,
2013-07-31 10:14:00,72.0,67.0,30.13,SW,225,0.0,0.0,83,0.00,,,0.00,weatherlink.com 1.10,2013-07-31 14:14:00,
2013-07-31 10:29:00,72.4,66.0,30.12,NNE,13,0.0,1.0,81,0.00,,,0.00,weatherlink.com 1.10,2013-07-31 14:29:00,
2013-07-31 10:44:00,72.7,66.0,30.12,ENE,57,1.0,1.0,79,0.00,,,0.00,weatherlink.com 1.10,2013-07-31 14:44:00,
2013-07-31 10:59:00,73.2,66.0,30.12,ENE,64,0.0,0.0,79,0.00,,,0.00,weatherlink.com 1.10,2013-07-31 14:59:00,
2013-07-31 11:14:00,73.5,67.0,30.12,ENE,65,0.0,1.0,80,0.00,,,0.00,weatherlink.com 1.10,2013-07-31 15:14:00,
2013-07-31 11:29:00,73.7,66.0,30.12,ENE,62,0.0,1.0,78,0.00,,,0.00,weatherlink.com 1.10,2013-07-31 15:29:00,
2013-07-31 11:44:00,73.9,66.0,30.11,ENE,63,0.0,0.0,77,0.00,,,0.00,weatherlink.com 1.10,2013-07-31 15:44:00,
2013-07-31 11:59:00,73.8,67.0,30.10,East,93,0.0,2.0,78,0.00,,,0.00,weatherlink.com 1.10,2013-07-31 15:59:00,
2013-07-31 12:14:00,73.9,67.0,30.10,SSW,195,2.0,3.0,78,0.00,,,0.00,weatherlink.com 1.10,2013-07-31 16:14:00,
2013-07-31 12:29:00,73.8,66.0,30.10,SSW,205,0.0,2.0,77,0.00,,,0.00,weatherlink.com 1.10,2013-07-31 16:29:00,
2013-07-31 12:44:00,73.8,67.0,30.10,SSW,208,0.0,1.0,78,0.00,,,0.00,weatherlink.com 1.10,2013-07-31 16:44:00,
2013-07-31 12:59:00,73.9,67.0,30.10,SSW,208,0.0,0.0,79,0.00,,,0.00,weatherlink.com 1.10,2013-07-31 16:59:00,
2013-07-31 13:14:00,74.0,68.0,30.10,SW,232,0.0,0.0,80,0.00,,,0.00,weatherlink.com 1.10,2013-07-31 17:14:00,
2013-07-31 13:29:00,73.9,67.0,30.09,SW,232,0.0,0.0,80,0.00,,,0.00,weatherlink.com 1.10,2013-07-31 17:29:00,
2013-07-31 13:44:00,73.9,67.0,30.09,NW,321,0.0,1.0,80,0.00,,,0.00,weatherlink.com 1.10,2013-07-31 17:44:00,
2013-07-31 13:59:00,73.9,67.0,30.09,West,271,0.0,1.0,80,0.00,,,0.00,weatherlink.com 1.10,2013-07-31 17:59:00,
2013-07-31 14:14:00,73.3,69.0,30.09,ENE,67,0.0,0.0,85,0.00,,,0.00,weatherlink.com 1.10,2013-07-31 18:14:00,
2013-07-31 14:29:00,72.9,68.0,30.08,ENE,67,0.0,0.0,84,0.00,,,0.00,weatherlink.com 1.10,2013-07-31 18:29:00,
2013-07-31 14:44:00,72.8,68.0,30.08,ENE,66,0.0,0.0,84,0.00,,,0.00,weatherlink.com 1.10,2013-07-31 18:44:00,
2013-07-31 14:59:00,73.0,68.0,30.07,ENE,57,0.0,1.0,85,0.00,,,0.00,weatherlink.com 1.10,2013-07-31 18:59:00,
2013-07-31 15:14:00,73.2,68.0,30.06,East,86,0.0,1.0,84,0.00,,,0.00,weatherlink.com 1.10,2013-07-31 19:14:00,
2013-07-31 15:29:00,73.9,69.0,30.06,East,86,0.0,0.0,85,0.00,,,0.00,weatherlink.com 1.10,2013-07-31 19:29:00,
2013-07-31 15:44:00,74.1,67.0,30.05,South,185,0.0,2.0,78,0.00,,,0.00,weatherlink.com 1.10,2013-07-31 19:44:00,
2013-07-31 15:59:00,74.5,67.0,30.04,SE,140,1.0,2.0,77,0.00,,,0.00,weatherlink.com 1.10,2013-07-31 19:59:00,
2013-07-31 16:14:00,74.9,67.0,30.04,SE,138,0.0,2.0,77,0.00,,,0.00,weatherlink.com 1.10,2013-07-31 20:14:00,
2013-07-31 16:29:00,74.9,67.0,30.03,South,191,0.0,2.0,76,0.00,,,0.00,weatherlink.com 1.10,2013-07-31 20:29:00,
2013-07-31 16:44:00,74.9,67.0,30.03,SE,146,0.0,1.0,77,0.00,,,0.00,weatherlink.com 1.10,2013-07-31 20:44:00,
2013-07-31 16:59:00,74.8,68.0,30.02,SE,132,0.0,2.0,79,0.00,,,0.00,weatherlink.com 1.10,2013-07-31 20:59:00,
2013-07-31 17:15:00,74.5,68.0,30.02,SE,134,0.0,2.0,80,0.00,,,0.00,weatherlink.com 1.10,2013-07-31 21:15:00,
2013-07-31 17:30:00,74.3,68.0,30.02,SE,144,0.0,2.0,81,0.00,,,0.00,weatherlink.com 1.10,2013-07-31 21:30:00,
2013-07-31 17:45:00,74.2,68.0,30.01,SE,144,0.0,1.0,82,0.00,,,0.00,weatherlink.com 1.10,2013-07-31 21:45:00,
2013-07-31 18:00:00,74.3,69.0,30.00,SE,130,0.0,1.0,83,0.00,,,0.00,weatherlink.com 1.10,2013-07-31 22:00:00,
2013-07-31 18:15:00,74.2,68.0,30.00,South,169,0.0,1.0,82,0.00,,,0.00,weatherlink.com 1.10,2013-07-31 22:15:00,
2013-07-31 18:30:00,73.9,69.0,30.00,South,175,0.0,1.0,85,0.00,,,0.00,weatherlink.com 1.10,2013-07-31 22:30:00,
2013-07-31 18:45:00,72.5,69.0,30.01,WSW,240,0.0,2.0,87,0.00,,,0.00,weatherlink.com 1.10,2013-07-31 22:45:00,
2013-07-31 19:00:00,70.6,68.0,30.00,NW,326,2.0,3.0,91,0.01,,,0.01,weatherlink.com 1.10,2013-07-31 23:00:00,
2013-07-31 19:15:00,69.2,68.0,30.00,NNW,343,1.0,3.0,94,0.01,,,0.01,weatherlink.com 1.10,2013-07-31 23:15:00,
2013-07-31 19:30:00,69.0,68.0,30.00,NNE,33,0.0,1.0,95,0.01,,,0.01,weatherlink.com 1.10,2013-07-31 23:30:00,
2013-07-31 19:45:00,68.9,68.0,30.00,NNE,33,0.0,1.0,96,0.01,,,0.01,weatherlink.com 1.10,2013-07-31 23:45:00,
2013-07-31 20:00:00,68.8,68.0,30.00,NE,49,0.0,0.0,96,0.00,,,0.01,weatherlink.com 1.10,2013-08-01 00:00:00,
2013-07-31 20:15:00,68.8,68.0,30.00,SE,140,0.0,0.0,96,0.00,,,0.01,weatherlink.com 1.10,2013-08-01 00:15:00,
2013-07-31 20:30:00,68.6,68.0,30.00,SE,140,0.0,0.0,97,0.00,,,0.01,weatherlink.com 1.10,2013-08-01 00:30:00,
2013-07-31 20:45:00,68.5,68.0,29.99,SE,140,0.0,0.0,97,0.00,,,0.01,weatherlink.com 1.10,2013-08-01 00:45:00,
2013-07-31 21:00:00,68.5,68.0,30.00,SE,140,0.0,0.0,97,0.00,,,0.01,weatherlink.com 1.10,2013-08-01 01:00:00,
2013-07-31 21:15:00,68.4,68.0,30.00,SE,140,0.0,0.0,97,0.00,,,0.01,weatherlink.com 1.10,2013-08-01 01:15:00,
2013-07-31 21:30:00,68.4,68.0,30.00,SE,140,0.0,0.0,97,0.00,,,0.01,weatherlink.com 1.10,2013-08-01 01:30:00,
2013-07-31 21:45:00,68.4,68.0,30.00,SE,140,0.0,0.0,97,0.00,,,0.01,weatherlink.com 1.10,2013-08-01 01:45:00,
2013-07-31 22:00:00,68.3,68.0,30.00,SE,140,0.0,0.0,97,0.00,,,0.01,weatherlink.com 1.10,2013-08-01 02:00:00,
2013-07-31 22:15:00,68.0,67.0,30.00,SSE,165,0.0,1.0,97,0.00,,,0.01,weatherlink.com 1.10,2013-08-01 02:15:00,
2013-07-31 22:30:00,67.5,67.0,30.00,NNW,346,0.0,1.0,97,0.00,,,0.01,weatherlink.com 1.10,2013-08-01 02:30:00,
2013-07-31 22:45:00,67.1,66.0,30.00,West,265,0.0,1.0,97,0.00,,,0.01,weatherlink.com 1.10,2013-08-01 02:45:00,
2013-07-31 23:00:00,67.4,67.0,30.01,WSW,242,0.0,5.0,97,0.00,,,0.01,weatherlink.com 1.10,2013-08-01 03:00:00,
2013-07-31 23:15:00,67.5,67.0,29.99,ESE,109,0.0,2.0,97,0.00,,,0.01,weatherlink.com 1.10,2013-08-01 03:15:00,
2013-07-31 23:30:00,67.3,67.0,29.98,ESE,102,0.0,0.0,97,0.00,,,0.01,weatherlink.com 1.10,2013-08-01 03:30:00,
2013-07-31 23:45:00,67.3,67.0,29.98,ESE,109,0.0,0.0,97,0.00,,,0.01,weatherlink.com 1.10,2013-08-01 03:45:00,